Location: Godzisko
(49.9648°N, 19.4576°E)
Time: 06:26:37
(UTC+00:00)

X-37B - Pass Details

Date: 20 April 2021
Orbit: 386 x 389 km, 45.0° (Epoch: 04 May)

Event Time Altitude Azimuth Distance (km) Brightness Sun altitude
Exits shadow 02:56:53 10° 243° (WSW) 1,444 2.8 -7.1°
Reaches altitude 10° 02:56:58 10° 242° (WSW) 1,414 2.7 -7.1°
Maximum altitude 02:59:51 33° 176° (S) 682 1.6 -6.7°
Drops below altitude 10° 03:02:45 10° 111° (ESE) 1,413 4.1 -6.2°
Sets 03:04:56 0° 101° (E) 2,267 5.4 -5.9°
